| time (UTC) | temp F | wind direction | speed MPH | gust MPH | rain 1hr in | rain 24hr in | rain mn in | humidity % | barometer mb |
| 20260507145656 | 59 | 141 | 4.0 | 7.0 | 0.00 | 0.00 | 0.00 | 88 | 1017.0 |
| 20260507145153 | 59 | 22 | 6.0 | 11.0 | 0.00 | 0.00 | 0.00 | 89 | 1016.5 |
| 20260507144649 | 60 | 22 | 2.0 | 6.0 | 0.00 | 0.00 | 0.00 | 89 | 1016.6 |
| 20260507144148 | 59 | 25 | 6.0 | 13.0 | 0.00 | 0.00 | 0.00 | 89 | 1017.2 |
| 20260507143644 | 60 | 37 | 8.0 | 14.0 | 0.00 | 0.00 | 0.00 | 89 | 1017.0 |
| 20260507143141 | 59 | 66 | 7.0 | 15.0 | 0.00 | 0.00 | 0.00 | 90 | 1017.0 |
| 20260507142636 | 59 | 354 | 3.0 | 6.0 | 0.00 | 0.00 | 0.00 | 91 | 1017.3 |
| 20260507142134 | 59 | 38 | 9.0 | 16.0 | 0.00 | 0.00 | 0.00 | 91 | 1016.9 |
| 20260507141630 | 59 | 32 | 3.0 | 11.0 | 0.00 | 0.00 | 0.00 | 91 | 1017.0 |
| 20260507141127 | 59 | 45 | 5.0 | 11.0 | 0.00 | 0.00 | 0.00 | 91 | 1017.1 |
| 20260507140623 | 58 | 0 | 1.0 | 8.0 | 0.00 | 0.00 | 0.00 | 92 | 1017.0 |
| 20260507140121 | 58 | 357 | 5.0 | 13.0 | 0.00 | 0.00 | 0.00 | 92 | 1017.5 |
| 20260507135618 | 58 | 359 | 6.0 | 8.0 | 0.00 | 0.00 | 0.00 | 92 | 1017.4 |
| 20260507135115 | 58 | 26 | 8.0 | 17.0 | 0.00 | 0.00 | 0.00 | 92 | 1017.3 |
| 20260507134611 | 58 | 82 | 4.0 | 10.0 | 0.00 | 0.00 | 0.00 | 92 | 1016.9 |
| 20260507134107 | 59 | 352 | 4.0 | 7.0 | 0.00 | 0.00 | 0.00 | 92 | 1017.1 |
| 20260507133603 | 59 | 107 | 3.0 | 10.0 | 0.00 | 0.00 | 0.00 | 92 | 1017.2 |
| 20260507133101 | 59 | 333 | 7.0 | 14.0 | 0.00 | 0.00 | 0.00 | 92 | 1016.9 |
| 20260507132558 | 59 | 355 | 3.0 | 11.0 | 0.00 | 0.00 | 0.00 | 92 | 1017.2 |
| 20260507132054 | 58 | 324 | 4.0 | 13.0 | 0.00 | 0.00 | 0.00 | 92 | 1017.1 |
| 20260507131551 | 58 | 356 | 2.0 | 9.0 | 0.00 | 0.00 | 0.00 | 93 | 1016.9 |
| 20260507131049 | 58 | 353 | 2.0 | 7.0 | 0.00 | 0.00 | 0.00 | 93 | 1016.8 |
| 20260507130545 | 58 | 13 | 3.0 | 13.0 | 0.00 | 0.00 | 0.00 | 93 | 1017.1 |
| 20260507130043 | 58 | 37 | 9.0 | 11.0 | 0.00 | 0.00 | 0.00 | 93 | 1016.9 |
| 20260507125542 | 58 | 6 | 3.0 | 9.0 | 0.00 | 0.00 | 0.00 | 93 | 1016.9 |
| 20260507125039 | 58 | 22 | 6.0 | 9.0 | 0.00 | 0.00 | 0.00 | 93 | 1016.7 |
| 20260507124535 | 58 | 25 | 9.0 | 16.0 | 0.00 | 0.00 | 0.00 | 93 | 1016.8 |
| 20260507124033 | 58 | 28 | 2.0 | 8.0 | 0.00 | 0.00 | 0.00 | 93 | 1016.7 |
| 20260507123531 | 58 | 24 | 4.0 | 10.0 | 0.00 | 0.00 | 0.00 | 93 | 1016.9 |
| 20260507123027 | 58 | 56 | 11.0 | 12.0 | 0.00 | 0.00 | 0.00 | 92 | 1016.7 |
| 20260507122522 | 59 | 313 | 3.0 | 9.0 | 0.00 | 0.00 | 0.00 | 93 | 1016.5 |
| 20260507122019 | 59 | 21 | 4.0 | 7.0 | 0.00 | 0.00 | 0.00 | 93 | 1016.3 |
| 20260507121514 | 59 | 17 | 4.0 | 8.0 | 0.00 | 0.00 | 0.00 | 93 | 1016.0 |
| 20260507121010 | 59 | 7 | 5.0 | 12.0 | 0.00 | 0.00 | 0.00 | 93 | 1016.2 |
| 20260507120507 | 59 | 338 | 5.0 | 18.0 | 0.00 | 0.00 | 0.00 | 93 | 1016.2 |
| 20260507120005 | 59 | 339 | 2.0 | 8.0 | 0.00 | 0.00 | 0.00 | 93 | 1016.1 |
| 20260507115500 | 60 | 7 | 3.0 | 15.0 | 0.00 | 0.00 | 0.00 | 93 | 1016.1 |
| 20260507114955 | 60 | 16 | 9.0 | 10.0 | 0.00 | 0.00 | 0.00 | 93 | 1016.0 |
| 20260507114452 | 60 | 348 | 2.0 | 13.0 | 0.00 | 0.00 | 0.00 | 93 | 1016.0 |
| 20260507113949 | 60 | 347 | 5.0 | 7.0 | 0.00 | 0.00 | 0.00 | 93 | 1015.8 |
| 20260507113446 | 60 | 30 | 2.0 | 15.0 | 0.00 | 0.00 | 0.00 | 93 | 1016.1 |
| 20260507112944 | 60 | 10 | 3.0 | 5.0 | 0.00 | 0.00 | 0.00 | 94 | 1016.0 |
| 20260507112441 | 60 | 0 | 2.0 | 6.0 | 0.00 | 0.00 | 0.00 | 94 | 1015.8 |
| 20260507111938 | 60 | 48 | 9.0 | 9.0 | 0.00 | 0.00 | 0.00 | 94 | 1015.3 |
| 20260507111435 | 60 | 35 | 1.0 | 10.0 | 0.00 | 0.00 | 0.00 | 94 | 1014.9 |
| 20260507110931 | 60 | 48 | 5.0 | 8.0 | 0.00 | 0.00 | 0.00 | 95 | 1014.8 |
| 20260507110428 | 60 | 4 | 2.0 | 9.0 | 0.00 | 0.00 | 0.00 | 95 | 1015.1 |
| 20260507105924 | 60 | 16 | 5.0 | 11.0 | 0.00 | 0.00 | 0.00 | 95 | 1015.0 |
| 20260507105421 | 60 | 16 | 7.0 | 17.0 | 0.00 | 0.00 | 0.00 | 95 | 1015.0 |
| 20260507104918 | 60 | 9 | 3.0 | 17.0 | 0.00 | 0.00 | 0.00 | 95 | 1015.5 |
| 20260507104415 | 60 | 311 | 3.0 | 6.0 | 0.00 | 0.00 | 0.00 | 96 | 1015.2 |
| 20260507103910 | 60 | 48 | 4.0 | 9.0 | 0.00 | 0.00 | 0.00 | 96 | 1015.3 |
| 20260507103408 | 60 | 283 | 4.0 | 13.0 | 0.00 | 0.00 | 0.00 | 96 | 1015.1 |
| 20260507102903 | 60 | 12 | 1.0 | 6.0 | 0.00 | 0.00 | 0.00 | 96 | 1015.3 |
| 20260507102400 | 60 | 65 | 5.0 | 9.0 | 0.00 | 0.00 | 0.00 | 96 | 1014.9 |
| 20260507101857 | 61 | 353 | 3.0 | 8.0 | 0.00 | 0.00 | 0.00 | 96 | 1015.1 |
| 20260507101357 | 61 | 15 | 2.0 | 4.0 | 0.00 | 0.00 | 0.00 | 96 | 1015.1 |
| 20260507100854 | 61 | 36 | 2.0 | 7.0 | 0.00 | 0.00 | 0.00 | 96 | 1014.7 |
| 20260507100352 | 61 | 8 | 3.0 | 6.0 | 0.00 | 0.00 | 0.00 | 96 | 1014.7 |
| 20260507095850 | 61 | 0 | 0.0 | 3.0 | 0.00 | 0.00 | 0.00 | 96 | 1015.0 |
| 20260507095346 | 61 | 325 | 1.0 | 4.0 | 0.00 | 0.00 | 0.00 | 96 | 1014.9 |
| 20260507094843 | 61 | 7 | 1.0 | 10.0 | 0.00 | 0.00 | 0.00 | 96 | 1014.6 |
| 20260507094340 | 61 | 41 | 2.0 | 7.0 | 0.00 | 0.00 | 0.00 | 96 | 1014.4 |
| 20260507093837 | 61 | 32 | 3.0 | 4.0 | 0.00 | 0.00 | 0.00 | 95 | 1014.3 |
| 20260507093335 | 61 | 29 | 0.0 | 8.0 | 0.00 | 0.00 | 0.00 | 95 | 1014.0 |
| 20260507092833 | 61 | 292 | 5.0 | 9.0 | 0.00 | 0.00 | 0.00 | 95 | 1014.2 |
| 20260507092329 | 61 | 45 | 3.0 | 7.0 | 0.00 | 0.00 | 0.00 | 95 | 1014.3 |
| 20260507091825 | 61 | 229 | 2.0 | 6.0 | 0.00 | 0.00 | 0.00 | 95 | 1014.7 |
| 20260507091322 | 61 | 352 | 2.0 | 4.0 | 0.00 | 0.00 | 0.00 | 95 | 1014.6 |
| 20260507090818 | 61 | 352 | 0.0 | 7.0 | 0.00 | 0.00 | 0.00 | 95 | 1014.2 |
| 20260507090314 | 61 | 15 | 5.0 | 7.0 | 0.00 | 0.00 | 0.00 | 95 | 1014.0 |
| 20260507085811 | 61 | 12 | 2.0 | 3.0 | 0.00 | 0.00 | 0.00 | 95 | 1013.9 |
| 20260507085308 | 61 | 342 | 1.0 | 5.0 | 0.00 | 0.00 | 0.00 | 94 | 1013.5 |
| 20260507084806 | 61 | 15 | 5.0 | 7.0 | 0.00 | 0.00 | 0.00 | 94 | 1013.4 |
| 20260507084301 | 61 | 11 | 2.0 | 5.0 | 0.00 | 0.00 | 0.00 | 94 | 1013.5 |
| 20260507083759 | 61 | 48 | 2.0 | 6.0 | 0.00 | 0.00 | 0.00 | 94 | 1013.7 |
| 20260507083255 | 61 | 41 | 2.0 | 8.0 | 0.00 | 0.00 | 0.00 | 94 | 1013.5 |
| 20260507082752 | 62 | 0 | 2.0 | 4.0 | 0.00 | 0.00 | 0.00 | 94 | 1013.5 |
| 20260507082247 | 62 | 43 | 5.0 | 6.0 | 0.00 | 0.00 | 0.00 | 94 | 1013.3 |
| 20260507081744 | 62 | 28 | 2.0 | 7.0 | 0.00 | 0.00 | 0.00 | 94 | 1013.6 |
| 20260507081240 | 62 | 39 | 5.0 | 8.0 | 0.00 | 0.00 | 0.00 | 93 | 1013.5 |
| 20260507080737 | 62 | 50 | 3.0 | 4.0 | 0.00 | 0.00 | 0.00 | 93 | 1014.1 |
| 20260507080233 | 62 | 50 | 3.0 | 6.0 | 0.00 | 0.00 | 0.00 | 93 | 1014.3 |
| 20260507075729 | 62 | 33 | 4.0 | 9.0 | 0.00 | 0.00 | 0.00 | 93 | 1014.2 |
| 20260507075225 | 62 | 69 | 1.0 | 2.0 | 0.00 | 0.00 | 0.00 | 93 | 1014.5 |
| 20260507074722 | 62 | 11 | 4.0 | 5.0 | 0.00 | 0.00 | 0.00 | 93 | 1014.5 |
| 20260507074220 | 62 | 285 | 0.0 | 3.0 | 0.00 | 0.00 | 0.00 | 93 | 1014.9 |
| 20260507073716 | 62 | 22 | 8.0 | 9.0 | 0.00 | 0.00 | 0.00 | 93 | 1013.6 |
| 20260507073213 | 62 | 38 | 2.0 | 4.0 | 0.00 | 0.00 | 0.00 | 93 | 1014.1 |
| 20260507072711 | 62 | 10 | 2.0 | 12.0 | 0.00 | 0.00 | 0.00 | 93 | 1013.9 |
| 20260507072208 | 62 | 70 | 3.0 | 11.0 | 0.00 | 0.00 | 0.00 | 93 | 1013.4 |
| 20260507071705 | 62 | 348 | 7.0 | 7.0 | 0.00 | 0.00 | 0.00 | 93 | 1013.2 |
| 20260507071201 | 62 | 24 | 5.0 | 7.0 | 0.00 | 0.00 | 0.00 | 92 | 1013.9 |
| 20260507070659 | 62 | 11 | 7.0 | 9.0 | 0.00 | 0.00 | 0.00 | 92 | 1014.0 |
| 20260507070155 | 62 | 32 | 2.0 | 8.0 | 0.00 | 0.00 | 0.00 | 92 | 1014.0 |
| 20260507065652 | 62 | 307 | 3.0 | 12.0 | 0.00 | 0.00 | 0.00 | 92 | 1013.8 |
| 20260507065149 | 62 | 38 | 4.0 | 9.0 | 0.00 | 0.00 | 0.00 | 92 | 1014.0 |
| 20260507064646 | 62 | 6 | 5.0 | 5.0 | 0.00 | 0.00 | 0.00 | 92 | 1014.5 |
| 20260507064145 | 62 | 21 | 5.0 | 6.0 | 0.00 | 0.00 | 0.00 | 92 | 1014.5 |
| 20260507063642 | 62 | 77 | 4.0 | 13.0 | 0.00 | 0.00 | 0.00 | 92 | 1013.6 |
| 20260507063139 | 62 | 65 | 7.0 | 10.0 | 0.00 | 0.00 | 0.00 | 92 | 1013.8 |
| 20260507062636 | 62 | 357 | 5.0 | 9.0 | 0.00 | 0.00 | 0.00 | 92 | 1014.5 |
| 20260507062133 | 62 | 15 | 3.0 | 8.0 | 0.00 | 0.00 | 0.00 | 92 | 1014.5 |
| 20260507061631 | 62 | 117 | 5.0 | 10.0 | 0.00 | 0.00 | 0.00 | 92 | 1014.0 |
| 20260507061129 | 62 | 353 | 7.0 | 14.0 | 0.00 | 0.00 | 0.00 | 91 | 1014.4 |
| 20260507060627 | 62 | 43 | 4.0 | 9.0 | 0.00 | 0.00 | 0.00 | 91 | 1014.2 |
| 20260507060123 | 62 | 0 | 2.0 | 7.0 | 0.00 | 0.00 | 0.00 | 91 | 1014.7 |
| 20260507055618 | 62 | 40 | 8.0 | 10.0 | 0.00 | 0.00 | 0.00 | 91 | 1014.3 |
| 20260507055114 | 62 | 26 | 5.0 | 15.0 | 0.00 | 0.00 | 0.00 | 91 | 1014.6 |
| 20260507054610 | 62 | 270 | 0.0 | 10.0 | 0.00 | 0.00 | 0.00 | 91 | 1014.4 |
| 20260507054108 | 62 | 25 | 7.0 | 17.0 | 0.00 | 0.00 | 0.00 | 91 | 1014.1 |
| 20260507053606 | 62 | 36 | 5.0 | 15.0 | 0.00 | 0.00 | 0.00 | 91 | 1013.7 |
| 20260507053104 | 62 | 26 | 4.0 | 11.0 | 0.00 | 0.00 | 0.00 | 91 | 1014.0 |
| 20260507052602 | 62 | 15 | 7.0 | 11.0 | 0.00 | 0.00 | 0.00 | 91 | 1013.9 |
| 20260507052058 | 62 | 359 | 11.0 | 13.0 | 0.00 | 0.00 | 0.00 | 91 | 1014.1 |
| 20260507051555 | 62 | 23 | 6.0 | 11.0 | 0.00 | 0.00 | 0.00 | 91 | 1014.3 |
| 20260507051052 | 62 | 19 | 4.0 | 10.0 | 0.00 | 0.00 | 0.00 | 91 | 1014.2 |
| 20260507050549 | 62 | 18 | 1.0 | 11.0 | 0.00 | 0.00 | 0.00 | 91 | 1014.5 |
| 20260507050045 | 62 | 55 | 5.0 | 7.0 | 0.00 | 0.00 | 0.00 | 91 | 1014.4 |
| 20260507045542 | 62 | 341 | 3.0 | 16.0 | 0.00 | 0.00 | 0.00 | 91 | 1014.3 |
| 20260507045039 | 62 | 24 | 5.0 | 11.0 | 0.00 | 0.00 | 0.00 | 90 | 1014.4 |
| 20260507044536 | 62 | 3 | 3.0 | 5.0 | 0.00 | 0.00 | 0.00 | 90 | 1014.3 |
| 20260507044033 | 62 | 20 | 5.0 | 16.0 | 0.00 | 0.00 | 0.00 | 90 | 1014.1 |
| 20260507043528 | 62 | 30 | 6.0 | 12.0 | 0.00 | 0.00 | 0.00 | 90 | 1014.1 |
| 20260507043026 | 62 | 6 | 1.0 | 14.0 | 0.00 | 0.00 | 0.00 | 90 | 1014.0 |
| 20260507042522 | 62 | 21 | 2.0 | 6.0 | 0.00 | 0.00 | 0.00 | 90 | 1014.2 |
| 20260507042017 | 62 | 345 | 6.0 | 10.0 | 0.00 | 0.00 | 0.00 | 90 | 1014.2 |
| 20260507041515 | 62 | 37 | 7.0 | 13.0 | 0.00 | 0.00 | 0.00 | 90 | 1014.0 |
| 20260507041012 | 62 | 24 | 10.0 | 10.0 | 0.00 | 0.00 | 0.00 | 90 | 1014.0 |
| 20260507040508 | 62 | 24 | 5.0 | 8.0 | 0.00 | 0.00 | 0.00 | 90 | 1014.5 |
| 20260507040004 | 62 | 63 | 3.0 | 6.0 | 0.00 | 0.00 | 0.00 | 90 | 1014.3 |
| 20260507035500 | 62 | 351 | 4.0 | 12.0 | 0.00 | 0.00 | 0.00 | 90 | 1013.5 |
| 20260507034957 | 63 | 12 | 5.0 | 9.0 | 0.00 | 0.00 | 0.00 | 90 | 1013.7 |
| 20260507034454 | 63 | 56 | 2.0 | 7.0 | 0.00 | 0.00 | 0.00 | 90 | 1014.6 |
| 20260507033952 | 63 | 27 | 4.0 | 14.0 | 0.00 | 0.00 | 0.00 | 90 | 1014.1 |
| 20260507033449 | 63 | 7 | 1.0 | 5.0 | 0.00 | 0.00 | 0.00 | 90 | 1013.8 |
| 20260507032946 | 63 | 18 | 5.0 | 9.0 | 0.00 | 0.00 | 0.00 | 90 | 1013.4 |
| 20260507032443 | 63 | 32 | 4.0 | 7.0 | 0.00 | 0.00 | 0.00 | 90 | 1013.8 |
| 20260507031939 | 63 | 62 | 4.0 | 5.0 | 0.00 | 0.00 | 0.00 | 90 | 1013.5 |
| 20260507031436 | 63 | 31 | 3.0 | 7.0 | 0.00 | 0.00 | 0.00 | 90 | 1013.9 |
| 20260507030933 | 63 | 51 | 4.0 | 6.0 | 0.00 | 0.00 | 0.00 | 90 | 1013.8 |
| 20260507030430 | 63 | 83 | 4.0 | 8.0 | 0.00 | 0.00 | 0.00 | 90 | 1013.7 |
| 20260507025927 | 63 | 41 | 7.0 | 11.0 | 0.00 | 0.00 | 0.00 | 90 | 1013.3 |
| 20260507025424 | 63 | 49 | 5.0 | 10.0 | 0.00 | 0.00 | 0.00 | 90 | 1013.6 |
| 20260507024922 | 63 | 37 | 6.0 | 7.0 | 0.00 | 0.00 | 0.00 | 90 | 1013.3 |
| 20260507024419 | 63 | 31 | 4.0 | 10.0 | 0.00 | 0.00 | 0.00 | 89 | 1013.7 |
| 20260507023915 | 63 | 31 | 4.0 | 7.0 | 0.00 | 0.00 | 0.00 | 90 | 1013.8 |
| 20260507023412 | 63 | 12 | 3.0 | 8.0 | 0.00 | 0.00 | 0.00 | 90 | 1013.5 |
| 20260507022909 | 63 | 330 | 2.0 | 10.0 | 0.00 | 0.00 | 0.00 | 90 | 1012.5 |
| 20260507022406 | 63 | 29 | 10.0 | 13.0 | 0.00 | 0.00 | 0.00 | 89 | 1012.7 |
| 20260507021901 | 63 | 12 | 3.0 | 5.0 | 0.00 | 0.00 | 0.00 | 90 | 1012.9 |
| 20260507021357 | 63 | 31 | 6.0 | 10.0 | 0.00 | 0.00 | 0.00 | 90 | 1012.6 |
| 20260507020855 | 63 | 17 | 5.0 | 8.0 | 0.00 | 0.00 | 0.00 | 90 | 1012.5 |
| 20260507020351 | 63 | 291 | 1.0 | 13.0 | 0.00 | 0.00 | 0.00 | 90 | 1012.7 |
| 20260507015848 | 63 | 19 | 4.0 | 7.0 | 0.00 | 0.00 | 0.00 | 90 | 1012.3 |
| 20260507015346 | 63 | 41 | 6.0 | 11.0 | 0.00 | 0.00 | 0.00 | 90 | 1012.2 |
| 20260507014844 | 63 | 59 | 2.0 | 8.0 | 0.00 | 0.00 | 0.00 | 90 | 1012.2 |
| 20260507014339 | 63 | 0 | 2.0 | 6.0 | 0.00 | 0.00 | 0.00 | 90 | 1012.4 |
| 20260507013836 | 63 | 342 | 1.0 | 5.0 | 0.00 | 0.00 | 0.00 | 90 | 1012.0 |
| 20260507013333 | 63 | 315 | 2.0 | 4.0 | 0.00 | 0.00 | 0.00 | 90 | 1012.0 |
| 20260507012831 | 63 | 186 | 4.0 | 10.0 | 0.00 | 0.00 | 0.00 | 90 | 1011.9 |
| 20260507012326 | 63 | 67 | 0.0 | 7.0 | 0.00 | 0.00 | 0.00 | 90 | 1011.8 |
| 20260507011824 | 63 | 83 | 0.0 | 5.0 | 0.00 | 0.00 | 0.00 | 90 | 1011.8 |
| 20260507011320 | 63 | 353 | 2.0 | 12.0 | 0.00 | 0.00 | 0.00 | 90 | 1011.6 |
| 20260507010820 | 63 | 86 | 5.0 | 5.0 | 0.00 | 0.00 | 0.00 | 90 | 1011.4 |
| 20260507010316 | 63 | 15 | 5.0 | 9.0 | 0.00 | 0.00 | 0.00 | 89 | 1011.6 |
| 20260507005813 | 63 | 270 | 4.0 | 7.0 | 0.00 | 0.00 | 0.00 | 89 | 1011.4 |
| 20260507005310 | 64 | 196 | 2.0 | 7.0 | 0.00 | 0.00 | 0.00 | 89 | 1011.2 |
| 20260507004801 | 64 | 26 | 1.0 | 3.0 | 0.00 | 0.00 | 0.00 | 89 | 1011.3 |
| 20260507004258 | 64 | 6 | 3.0 | 3.0 | 0.00 | 0.00 | 0.00 | 89 | 1011.2 |
| 20260507003754 | 64 | 62 | 6.0 | 6.0 | 0.00 | 0.00 | 0.00 | 89 | 1011.3 |
| 20260507003250 | 64 | 47 | 3.0 | 9.0 | 0.00 | 0.00 | 0.00 | 88 | 1011.4 |
| 20260507002746 | 64 | 331 | 0.0 | 5.0 | 0.00 | 0.00 | 0.00 | 89 | 1011.3 |
| 20260507002242 | 64 | 328 | 3.0 | 4.0 | 0.00 | 0.00 | 0.00 | 89 | 1011.0 |
| 20260507001739 | 64 | 26 | 4.0 | 11.0 | 0.00 | 0.00 | 0.00 | 88 | 1011.0 |
| 20260507001237 | 64 | 30 | 7.0 | 9.0 | 0.00 | 0.00 | 0.00 | 88 | 1011.0 |
| 20260507000733 | 64 | 0 | 2.0 | 7.0 | 0.00 | 0.00 | 0.00 | 87 | 1011.1 |
| 20260507000228 | 65 | 33 | 3.0 | 10.0 | 0.00 | 0.00 | 0.00 | 87 | 1010.9 |
| 20260506235726 | 65 | 254 | 1.0 | 6.0 | 0.00 | 0.00 | 0.00 | 87 | 1011.0 |
| 20260506235221 | 65 | 283 | 0.0 | 7.0 | 0.00 | 0.00 | 0.00 | 88 | 1011.0 |
| 20260506234718 | 65 | 19 | 2.0 | 6.0 | 0.00 | 0.00 | 0.00 | 87 | 1010.7 |
| 20260506234216 | 65 | 349 | 2.0 | 10.0 | 0.00 | 0.00 | 0.00 | 87 | 1010.6 |
| 20260506233713 | 66 | 47 | 8.0 | 8.0 | 0.00 | 0.00 | 0.00 | 87 | 1010.5 |
| 20260506233209 | 66 | 354 | 3.0 | 15.0 | 0.00 | 0.00 | 0.00 | 86 | 1010.5 |
| 20260506232707 | 66 | 90 | 3.0 | 14.0 | 0.00 | 0.00 | 0.00 | 86 | 1010.3 |
| 20260506232201 | 67 | 15 | 4.0 | 12.0 | 0.00 | 0.00 | 0.00 | 85 | 1010.5 |
| 20260506231658 | 67 | 41 | 2.0 | 7.0 | 0.00 | 0.00 | 0.00 | 85 | 1010.5 |
| 20260506231157 | 68 | 21 | 5.0 | 8.0 | 0.00 | 0.00 | 0.00 | 84 | 1010.3 |
| 20260506230653 | 68 | 54 | 3.0 | 6.0 | 0.00 | 0.00 | 0.00 | 84 | 1010.3 |
| 20260506230150 | 68 | 57 | 5.0 | 9.0 | 0.00 | 0.00 | 0.00 | 84 | 1010.1 |
| 20260506225646 | 69 | 350 | 6.0 | 11.0 | 0.00 | 0.00 | 0.00 | 83 | 1010.1 |
| 20260506225143 | 69 | 318 | 3.0 | 5.0 | 0.00 | 0.00 | 0.00 | 83 | 1010.2 |
| 20260506224640 | 69 | 335 | 4.0 | 12.0 | 0.00 | 0.00 | 0.00 | 83 | 1010.3 |
| 20260506224136 | 69 | 30 | 8.0 | 15.0 | 0.00 | 0.00 | 0.00 | 82 | 1010.3 |
| 20260506223633 | 69 | 302 | 0.0 | 13.0 | 0.00 | 0.00 | 0.00 | 83 | 1010.1 |
| 20260506223129 | 70 | 352 | 3.0 | 10.0 | 0.00 | 0.00 | 0.00 | 83 | 1010.3 |
| 20260506222626 | 70 | 324 | 5.0 | 9.0 | 0.00 | 0.00 | 0.00 | 82 | 1010.4 |
| 20260506222122 | 71 | 5 | 5.0 | 19.0 | 0.00 | 0.00 | 0.00 | 80 | 1010.2 |
| 20260506221620 | 71 | 356 | 3.0 | 7.0 | 0.00 | 0.00 | 0.00 | 81 | 1010.1 |
| 20260506221117 | 71 | 84 | 3.0 | 8.0 | 0.00 | 0.00 | 0.00 | 81 | 1010.1 |
| 20260506220614 | 71 | 307 | 0.0 | 7.0 | 0.00 | 0.00 | 0.00 | 81 | 1010.1 |
| 20260506220109 | 71 | 261 | 5.0 | 9.0 | 0.00 | 0.00 | 0.00 | 82 | 1010.1 |
| 20260506215606 | 70 | 48 | 5.0 | 6.0 | 0.00 | 0.00 | 0.00 | 83 | 1010.0 |
| 20260506215102 | 70 | 0 | 1.0 | 9.0 | 0.00 | 0.00 | 0.00 | 84 | 1010.3 |
| 20260506214559 | 69 | 19 | 2.0 | 9.0 | 0.00 | 0.00 | 0.00 | 85 | 1010.2 |
| 20260506214056 | 69 | 71 | 0.0 | 9.0 | 0.00 | 0.00 | 0.00 | 85 | 1010.2 |
| 20260506213554 | 69 | 77 | 1.0 | 12.0 | 0.00 | 0.00 | 0.00 | 84 | 1010.0 |
| 20260506213051 | 69 | 332 | 5.0 | 8.0 | 0.00 | 0.00 | 0.00 | 84 | 1009.8 |
| 20260506212548 | 69 | 36 | 2.0 | 9.0 | 0.00 | 0.00 | 0.00 | 84 | 1010.0 |
| 20260506212043 | 69 | 296 | 3.0 | 13.0 | 0.00 | 0.00 | 0.00 | 85 | 1009.9 |
| 20260506211539 | 70 | 44 | 7.0 | 13.0 | 0.00 | 0.00 | 0.00 | 84 | 1010.0 |
| 20260506211036 | 71 | 335 | 4.0 | 9.0 | 0.00 | 0.00 | 0.00 | 85 | 1010.0 |
| 20260506210533 | 72 | 19 | 4.0 | 9.0 | 0.00 | 0.00 | 0.00 | 84 | 1009.9 |
| 20260506210029 | 73 | 21 | 5.0 | 6.0 | 0.00 | 0.00 | 0.00 | 84 | 1010.1 |
| 20260506205526 | 73 | 352 | 0.0 | 6.0 | 0.00 | 0.00 | 0.00 | 85 | 1010.0 |
| 20260506205021 | 73 | 31 | 3.0 | 5.0 | 0.00 | 0.00 | 0.00 | 85 | 1009.5 |
| 20260506204520 | 74 | 73 | 5.0 | 7.0 | 0.00 | 0.00 | 0.00 | 85 | 1010.0 |
| 20260506204016 | 74 | 62 | 3.0 | 9.0 | 0.00 | 0.00 | 0.00 | 85 | 1009.8 |
| 20260506203515 | 75 | 345 | 2.0 | 8.0 | 0.00 | 0.00 | 0.00 | 85 | 1009.7 |
| 20260506203011 | 75 | 352 | 3.0 | 7.0 | 0.00 | 0.00 | 0.00 | 85 | 1009.4 |
| 20260506202508 | 77 | 288 | 3.0 | 5.0 | 0.00 | 0.00 | 0.00 | 86 | 1009.5 |
| 20260506202004 | 77 | 29 | 3.0 | 7.0 | 0.00 | 0.00 | 0.00 | 86 | 1009.4 |
| 20260506201502 | 78 | 180 | 0.0 | 5.0 | 0.00 | 0.00 | 0.00 | 85 | 1009.5 |
| 20260506200959 | 79 | 293 | 5.0 | 6.0 | 0.00 | 0.00 | 0.00 | 84 | 1009.4 |
| 20260506200455 | 80 | 63 | 3.0 | 6.0 | 0.00 | 0.00 | 0.00 | 84 | 1009.4 |
| 20260506195951 | 78 | 355 | 2.0 | 6.0 | 0.00 | 0.00 | 0.00 | 86 | 1009.4 |
| 20260506195449 | 79 | 356 | 2.0 | 5.0 | 0.00 | 0.00 | 0.00 | 84 | 1009.5 |
| 20260506194945 | 78 | 24 | 0.0 | 8.0 | 0.00 | 0.00 | 0.00 | 86 | 1009.5 |
| 20260506194442 | 77 | 33 | 3.0 | 8.0 | 0.00 | 0.00 | 0.00 | 85 | 1009.5 |
| 20260506193939 | 79 | 9 | 2.0 | 6.0 | 0.00 | 0.00 | 0.00 | 83 | 1009.6 |
| 20260506193436 | 78 | 84 | 2.0 | 3.0 | 0.00 | 0.00 | 0.00 | 84 | 1009.6 |
| 20260506192932 | 77 | 342 | 2.0 | 4.0 | 0.00 | 0.00 | 0.00 | 84 | 1009.6 |
| 20260506192429 | 77 | 9 | 3.0 | 5.0 | 0.00 | 0.00 | 0.00 | 83 | 1009.6 |
| 20260506191926 | 77 | 0 | 0.0 | 3.0 | 0.00 | 0.00 | 0.00 | 84 | 1009.5 |
| 20260506191422 | 77 | 48 | 2.0 | 3.0 | 0.00 | 0.00 | 0.00 | 84 | 1009.8 |
| 20260506190914 | 77 | 305 | 3.0 | 4.0 | 0.00 | 0.00 | 0.00 | 84 | 1009.8 |
| 20260506190411 | 75 | 21 | 2.0 | 4.0 | 0.00 | 0.00 | 0.00 | 86 | 1009.5 |
| 20260506185908 | 74 | 11 | 3.0 | 8.0 | 0.00 | 0.00 | 0.00 | 86 | 1009.7 |
| 20260506185405 | 74 | 59 | 7.0 | 8.0 | 0.00 | 0.00 | 0.00 | 86 | 1009.7 |
| 20260506184902 | 72 | 65 | 2.0 | 7.0 | 0.00 | 0.00 | 0.00 | 88 | 1009.3 |
| 20260506184359 | 72 | 41 | 6.0 | 9.0 | 0.00 | 0.00 | 0.00 | 89 | 1009.6 |
| 20260506183856 | 73 | 20 | 7.0 | 9.0 | 0.00 | 0.00 | 0.00 | 86 | 1009.7 |
| 20260506183351 | 71 | 131 | 2.0 | 9.0 | 0.00 | 0.00 | 0.00 | 91 | 1009.6 |
| 20260506182849 | 71 | 97 | 6.0 | 8.0 | 0.00 | 0.00 | 0.00 | 89 | 1009.6 |
| 20260506182346 | 69 | 19 | 4.0 | 7.0 | 0.00 | 0.00 | 0.00 | 90 | 1009.8 |
| 20260506181843 | 69 | 27 | 5.0 | 10.0 | 0.00 | 0.00 | 0.00 | 90 | 1009.7 |
| 20260506181341 | 69 | 14 | 2.0 | 9.0 | 0.00 | 0.00 | 0.00 | 89 | 1010.2 |
| 20260506180838 | 68 | 79 | 7.0 | 15.0 | 0.00 | 0.00 | 0.00 | 92 | 1010.1 |
| 20260506180334 | 68 | 27 | 0.0 | 7.0 | 0.00 | 0.00 | 0.00 | 91 | 1010.3 |
| 20260506175830 | 68 | 5 | 2.0 | 9.0 | 0.00 | 0.00 | 0.00 | 91 | 1010.7 |
| 20260506175327 | 68 | 1 | 5.0 | 6.0 | 0.00 | 0.00 | 0.00 | 91 | 1010.8 |
| 20260506174824 | 67 | 43 | 6.0 | 11.0 | 0.00 | 0.00 | 0.00 | 92 | 1010.8 |
| 20260506174321 | 67 | 102 | 6.0 | 6.0 | 0.00 | 0.00 | 0.00 | 92 | 1011.0 |
| 20260506173819 | 66 | 28 | 5.0 | 10.0 | 0.00 | 0.00 | 0.00 | 91 | 1010.8 |
| 20260506173316 | 66 | 28 | 10.0 | 13.0 | 0.00 | 0.00 | 0.00 | 94 | 1010.5 |
| 20260506172813 | 66 | 0 | 5.0 | 7.0 | 0.00 | 0.00 | 0.00 | 95 | 1011.0 |
| 20260506172309 | 65 | 27 | 7.0 | 21.0 | 0.00 | 0.00 | 0.00 | 96 | 1010.8 |
| 20260506171807 | 64 | 87 | 4.0 | 9.0 | 0.00 | 0.00 | 0.00 | 97 | 1011.0 |
| 20260506171304 | 64 | 20 | 3.0 | 11.0 | 0.00 | 0.00 | 0.00 | 98 | 1011.5 |
| 20260506170802 | 65 | 346 | 6.0 | 10.0 | 0.00 | 0.00 | 0.00 | 97 | 1011.5 |
| 20260506170257 | 65 | 358 | 4.0 | 16.0 | 0.00 | 0.00 | 0.00 | 97 | 1011.5 |
| 20260506165756 | 66 | 23 | 3.0 | 11.0 | 0.00 | 0.00 | 0.00 | 96 | 1011.5 |
| 20260506165253 | 66 | 100 | 5.0 | 16.0 | 0.00 | 0.00 | 0.00 | 96 | 1011.9 |
| 20260506164750 | 66 | 19 | 4.0 | 12.0 | 0.00 | 0.00 | 0.00 | 95 | 1011.8 |
| 20260506164247 | 67 | 349 | 4.0 | 11.0 | 0.00 | 0.00 | 0.00 | 95 | 1011.9 |
| 20260506163744 | 67 | 3 | 5.0 | 11.0 | 0.00 | 0.00 | 0.00 | 94 | 1011.7 |
| 20260506163238 | 69 | 11 | 6.0 | 16.0 | 0.00 | 0.00 | 0.00 | 93 | 1011.6 |
| 20260506162735 | 71 | 338 | 3.0 | 17.0 | 0.00 | 0.00 | 0.00 | 90 | 1011.6 |
| 20260506162233 | 80 | 270 | 4.0 | 4.0 | 0.00 | 0.00 | 0.00 | 92 | 1011.1 |
| 20260506161730 | 79 | 270 | 0.0 | 1.0 | 0.00 | 0.00 | 0.00 | 91 | 1011.1 |
| 20260506161227 | 79 | 201 | 0.0 | 0.0 | 0.00 | 0.00 | 0.00 | 92 | 1011.0 |
| 20260506160724 | 79 | 215 | 1.0 | 3.0 | 0.00 | 0.00 | 0.00 | 92 | 1010.9 |
| 20260506160221 | 79 | 237 | 0.0 | 3.0 | 0.00 | 0.00 | 0.00 | 92 | 1010.7 |
| 20260506155720 | 80 | 210 | 2.0 | 2.0 | 0.00 | 0.00 | 0.00 | 91 | 1010.8 |
| 20260506155216 | 80 | 99 | 0.0 | 1.0 | 0.00 | 0.00 | 0.00 | 91 | 1010.3 |
| 20260506153318 | 79 | 197 | 2.0 | 3.0 | 0.00 | 0.00 | 0.00 | 92 | 1009.8 |
| 20260506152815 | 79 | 154 | 3.0 | 3.0 | 0.00 | 0.00 | 0.00 | 92 | 1009.7 |
| 20260506152312 | 79 | 128 | 0.0 | 3.0 | 0.00 | 0.00 | 0.00 | 93 | 1009.9 |
| 20260506151811 | 79 | 93 | 3.0 | 3.0 | 0.00 | 0.00 | 0.00 | 93 | 1009.8 |
| 20260506151307 | 79 | 66 | 1.0 | 3.0 | 0.00 | 0.00 | 0.00 | 94 | 1009.7 |
| 20260506150804 | 78 | 124 | 2.0 | 5.0 | 0.00 | 0.00 | 0.00 | 94 | 1009.8 |
| 20260506150304 | 78 | 139 | 2.0 | 3.0 | 0.00 | 0.00 | 0.00 | 94 | 1009.9 |